TimeAST,TemperatureF,Dew PointF,Humidity,Sea Level PressureIn,VisibilityMPH,Wind Direction,Wind SpeedMPH,Gust SpeedMPH,PrecipitationIn,Events,Conditions,WindDirDegrees,DateUTC
12:00 AM,80.6,73.4,79,30.04,6.2,East,12.7,-,N/A,,Partly Cloudy,80,2013-06-29 04:00:00
1:00 AM,80.6,73.4,79,30.01,6.2,East,11.5,-,N/A,,Partly Cloudy,90,2013-06-29 05:00:00
2:00 AM,81,72,68,30.00,16,East,12.7,,,,Partly Cloudy,90,2013-06-29 06:00:00
2:00 AM,80.6,71.6,74,29.98,6.2,East,12.7,-,N/A,,Partly Cloudy,90,2013-06-29 06:00:00
3:00 AM,80.6,71.6,74,29.98,6.2,East,12.7,-,N/A,,Partly Cloudy,90,2013-06-29 07:00:00
4:00 AM,80.6,71.6,74,29.98,6.2,East,10.4,-,N/A,,Partly Cloudy,90,2013-06-29 08:00:00
5:00 AM,81,72,68,30.00,16,East,10.4,,,,Scattered Clouds,90,2013-06-29 09:00:00
5:00 AM,80.6,71.6,74,29.98,6.2,East,10.4,-,N/A,,Partly Cloudy,90,2013-06-29 09:00:00
6:00 AM,80.6,71.6,74,29.98,6.2,ENE,8.1,-,N/A,,Partly Cloudy,60,2013-06-29 10:00:00
7:00 AM,82.4,73.4,74,30.01,6.2,East,9.2,-,N/A,,Mostly Cloudy,90,2013-06-29 11:00:00
8:00 AM,82.4,73.4,74,30.01,6.2,East,11.5,-,N/A,,Scattered Clouds,80,2013-06-29 12:00:00
9:00 AM,84.2,71.6,66,30.01,6.2,East,12.7,-,N/A,,Scattered Clouds,90,2013-06-29 13:00:00
10:00 AM,86.0,71.6,62,30.01,6.2,East,12.7,-,N/A,,Scattered Clouds,80,2013-06-29 14:00:00
11:00 AM,86,71,52,30.02,19,East,18.4,,,,Partly Cloudy,80,2013-06-29 15:00:00
11:00 AM,86.0,69.8,58,30.01,6.2,ENE,18.4,-,N/A,,Scattered Clouds,70,2013-06-29 15:00:00
12:00 PM,84.2,71.6,66,30.01,6.2,East,13.8,-,N/A,,Mostly Cloudy,90,2013-06-29 16:00:00
1:00 PM,86.0,71.6,62,30.01,6.2,ENE,17.3,-,N/A,,Mostly Cloudy,60,2013-06-29 17:00:00
2:00 PM,87,72,52,30.00,12,East,13.8,,,,Partly Cloudy,80,2013-06-29 18:00:00
2:00 PM,86.0,71.6,62,29.98,6.2,East,13.8,-,N/A,,Scattered Clouds,80,2013-06-29 18:00:00
3:00 PM,87.8,73.4,62,29.98,6.2,ENE,13.8,-,N/A,,Mostly Cloudy,70,2013-06-29 19:00:00
4:00 PM,86.0,73.4,66,29.95,6.2,ENE,15.0,-,N/A,,Mostly Cloudy,60,2013-06-29 20:00:00
5:00 PM,82,73,69,29.98,12,ENE,15.0,,,Rain,Light Rain Showers,70,2013-06-29 21:00:00
5:00 PM,82.4,73.4,74,29.98,6.2,ENE,15.0,-,N/A,,Mostly Cloudy,70,2013-06-29 21:00:00
6:00 PM,84.2,73.4,70,29.95,6.2,East,13.8,-,N/A,,Scattered Clouds,80,2013-06-29 22:00:00
7:00 PM,82.4,73.4,74,29.98,6.2,East,12.7,-,N/A,,Scattered Clouds,90,2013-06-29 23:00:00
8:00 PM,81,74,75,29.99,19,ESE,12.7,,,Rain,Light Rain Showers,110,2013-06-30 00:00:00
8:00 PM,80.6,75.2,84,29.98,6.2,ESE,12.7,-,N/A,,Partly Cloudy,110,2013-06-30 00:00:00
9:00 PM,80.6,73.4,79,29.98,6.2,ESE,11.5,-,N/A,Rain,Light Rain Showers,110,2013-06-30 01:00:00
10:00 PM,80.6,75.2,84,30.01,6.2,ESE,9.2,-,N/A,,Scattered Clouds,120,2013-06-30 02:00:00
11:00 PM,82,74,72,30.02,22,ESE,11.5,,,,Partly Cloudy,110,2013-06-30 03:00:00
11:00 PM,82.4,75.2,79,30.01,6.2,ESE,11.5,-,N/A,,Partly Cloudy,110,2013-06-30 03:00:00